Volver al catálogo

TIANQI 30

ActivoComunicacionesLEO
NORAD 61196·PAYLOAD·🇨🇳 China

Lanzado Sep 20, 2024 desde Xichang Satellite Launch Center

Loading…

Próximos Pases (próximas 24 horas)

TLE

ActualizadoSource: Space-Track

Época: Sep 14, 2026, 21:44 UTC

1 61196U 24170B   26257.90621996  .00000018  00000-0  10190-3 0  9994
2 61196  44.8577  97.8042 0008511 161.8664 198.2471 13.97722175101601

Sigue TIANQI 30 en tiempo real con AllMySat

Download on the App Store